Regional Weather Roundup
Issued by NWS Northern Indiana

Home | Current Version | Previous Version | Text Only | Print | Product List | Glossary On
Versions: 1 2 3 4 5 6 7 8 9 10 11 12 13 14 15 16 17 18 19 20 21 22 23 24 25 26 27 28 29 30 31 32 33 34 35 36 37 38 39 40 41 42 43 44 45 46 47 48 49 50
000
ASUS43 KIWX 311710
RWRIWX

KIWX WEATHER ROUNDUP
NATIONAL WEATHER SERVICE NORTHERN INDIANA
100 PM EDT THU JUL 31 2014

NOTE: "FAIR" INDICATES FEW OR NO CLOUDS BELOW 12,000 FEET WITH NO
SIGNIFICANT WEATHER AND/OR OBSTRUCTIONS TO VISIBILITY.

* THESE STATIONS ARE NOT UNDER NWS QUALITY CONTROL. THEY ALSO MAY NOT
  REPORT WEATHER SUCH AS PRECIPITATION OR FOG.

INZ001>027-311800-
NORTHERN INDIANA

CITY           SKY/WX    TMP DP  RH WIND       PRES   REMARKS
GARY*          MOSUNNY   81  59  47 W16       30.06S
VALPARAISO     SUNNY     78  59  51 W13       30.07S
MICHIGAN CITY* SUNNY     77  55  47 W14       30.06S
LAPORTE*       SUNNY     77  58  51 W10       30.07S
KNOX*          SUNNY     78  56  46 W7        30.06S
SOUTH BEND     MOSUNNY   79  58  48 W12       30.06S
GOSHEN         SUNNY     79  58  48 W8G22     30.06S
MONTICELLO*    SUNNY     76  61  59 W3        30.07S
LOGANSPORT*    SUNNY     77  57  50 W6        30.09S
ROCHESTER*     SUNNY     81  55  41 W9        30.08S
WARSAW*        SUNNY     77  59  53 SW5       30.07S
ANGOLA*        SUNNY     77  57  50 W8        30.06S
FORT WAYNE     MOSUNNY   78  57  48 W12       30.08S
HUNTINGTON*    SUNNY     78  58  50 W9        30.07F
PERU/GRISSOM   SUNNY     78  61  56 W9        30.08S
MARION*        MOSUNNY   76  58  53 W8        30.10S

$$
INZ028>050-311800-
CENTRAL INDIANA

CITY           SKY/WX    TMP DP  RH WIND       PRES   REMARKS
LAFAYETTE      SUNNY     77  58  51 W10       30.08S
KOKOMO*        SUNNY     79  59  50 W9        30.09S
MUNCIE*        MOSUNNY   77  56  48 W10G17    30.09F
INDIANAPOLIS   MOSUNNY   78  60  53 W14       30.10S

$$
MIZ043>046-050>051-056>058-064>065-071>073-077>080-311800-
SOUTHWEST LOWER MICHIGAN

CITY           SKY/WX    TMP DP  RH WIND       PRES   REMARKS
BATTLE CREEK   PTSUNNY   76  59  55 W14       30.04S
BENTON HARBOR  SUNNY     74  57  55 W16       30.05R
COLDWATER*     MOSUNNY   77  57  50 SW12G18   30.05S
HILLSDALE*     MOSUNNY   75  54  47 W13       30.06S
HOLLAND        SUNNY     72  61  68 W9        30.04S
GRAND RAPIDS   MOSUNNY   77  59  53 SW16      30.02S
KALAMAZOO      MOSUNNY   78  58  49 W14       30.04S
STURGIS*       CLOUDY    77  57  50 W13G18    30.05S
THREE RIVERS*  FAIR      77  59  53 W8        30.05S

$$
OHZ001>008-015>018-024>025-311800-
NORTHWEST OHIO

CITY           SKY/WX    TMP DP  RH WIND       PRES   REMARKS
WAUSEON*       FAIR      77  54  44 SW10G21   30.06S
DEFIANCE       MOSUNNY   77  55  46 VRB7      30.07S
FINDLAY        SUNNY     78  55  44 W10       30.07S
TOLEDO EXPRESS SUNNY     78  52  40 SW9       30.06S
TOLEDO METCALF SUNNY     77  50  38 SW12G20   30.06F
LIMA           SUNNY     76  59  55 W13G20    30.09S

$$
&&



USA.gov is the U.S. government's official web portal to all federal, state and local government web resources and services.